Wind_Speed
22 23 23 22 23 25 27 28 25 24 26 26 26 27 29 29 28 28 30 31 32 31 31 31 31 32 33 33 33 34 35 35 36 37 38 40 41 42 43 44 44 44 44 43 43 42 40 39 38 38 38 37 35 35 36 37 39 40 40 39 39 39 42
23 25 24 23 24 26 28 29 27 26 27 27 27 27 29 29 28 28 31 32 32 32 32 32 32 33 34 35 35 36 36 37 37 38 38 40 41 43 44 45 45 44 44 43 42 41 40 39 37 36 37 36 35 35 35 35 37 39 41 42 40 39 39
25 26 25 24 25 28 30 30 29 28 29 28 27 28 29 29 29 29 31 33 33 32 33 33 34 34 35 36 37 38 38 39 39 39 40 40 42 43 44 45 45 44 43 42 41 41 40 39 38 37 36 37 36 35 35 35 36 38 41 43 43 42 40
25 26 26 25 27 29 31 32 31 30 31 30 28 29 30 30 29 30 32 34 33 33 33 34 35 36 37 38 39 40 40 41 41 41 42 42 43 44 45 45 43 43 42 42 41 40 39 39 39 38 38 37 38 36 36 36 36 38 41 43 44 44 44
26 26 26 27 29 31 32 32 32 33 33 31 30 30 30 30 30 31 34 34 34 34 34 35 36 37 38 40 41 42 42 42 43 43 44 45 46 46 46 44 43 42 41 41 40 40 40 40 40 40 39 38 38 37 36 36 37 38 40 43 44 44 45
26 26 27 28 30 31 32 33 34 35 34 32 31 31 31 31 31 33 35 35 35 35 35 36 37 38 39 41 42 43 43 43 44 45 46 47 48 47 46 44 42 41 41 40 40 40 40 40 40 40 39 38 38 38 38 37 37 38 38 41 43 44 44
27 27 27 29 30 31 32 34 35 36 34 33 32 32 32 32 33 34 36 36 36 37 37 37 39 40 41 42 43 44 44 45 46 47 48 48 48 47 45 43 41 40 40 39 39 39 38 38 37 37 37 37 37 38 39 39 38 38 38 38 40 42 43
27 27 28 29 30 32 33 35 36 36 34 33 33 32 32 33 34 36 37 37 38 38 38 39 40 41 42 43 44 45 45 46 47 48 48 48 47 46 44 41 39 38 38 38 38 38 37 36 35 35 36 37 37 37 38 38 37 37 38 37 37 39 41
27 27 28 29 30 32 34 35 36 36 35 34 33 32 33 34 35 37 38 38 39 39 39 40 41 42 43 44 45 46 46 47 48 49 48 47 46 43 41 39 37 37 37 37 37 36 36 35 34 34 35 36 36 35 35 36 36 37 38 36 34 35 38
28 28 28 29 31 33 35 36 37 36 35 33 33 34 34 35 37 39 39 39 40 40 40 40 42 43 44 45 46 46 47 48 48 48 48 46 44 41 39 36 35 35 35 35 35 34 34 34 34 34 35 35 34 33 33 32 33 34 35 34 32 32 35
29 29 29 30 32 34 35 36 37 36 34 33 34 35 35 36 39 40 40 40 41 41 41 41 42 44 45 46 47 47 48 48 49 48 47 45 42 40 37 35 33 33 33 33 33 33 32 33 34 34 33 32 31 31 31 30 31 32 33 33 32 32 33
29 30 30 31 33 34 36 37 37 35 34 34 35 35 36 38 40 40 40 41 42 42 42 42 43 45 46 47 48 48 49 49 49 48 46 44 41 39 37 33 31 31 31 32 32 32 32 32 34 35 34 32 31 30 29 28 29 30 31 32 32 31 32
29 30 31 32 33 35 37 37 36 34 35 36 36 36 37 39 41 41 42 43 43 43 43 43 44 46 47 48 48 49 50 50 49 47 46 44 40 38 36 32 30 29 30 31 32 32 32 32 34 35 35 32 30 28 27 27 28 28 28 30 30 29 29
29 31 32 34 35 36 37 36 34 34 36 37 37 38 39 40 42 43 43 44 44 43 43 44 46 47 48 49 49 50 51 51 49 47 45 43 39 37 34 31 29 28 29 30 31 32 32 32 33 34 34 32 28 26 27 27 27 28 26 26 27 28 29
30 32 34 34 35 36 36 34 34 35 37 38 38 39 40 42 43 44 45 45 44 44 44 45 47 48 49 50 50 51 52 51 49 46 44 41 38 36 33 30 29 29 29 29 31 32 32 32 31 32 33 32 29 27 29 28 26 26 25 24 25 27 30
31 33 34 35 36 36 34 33 34 36 38 38 39 40 41 43 45 45 45 45 44 44 45 46 48 49 50 50 51 51 52 51 48 45 43 40 38 36 33 31 31 30 30 30 31 33 33 33 32 31 31 32 31 29 29 28 26 25 25 25 24 25 27
32 33 34 35 36 34 33 34 36 37 38 38 40 41 42 45 46 45 45 44 44 44 45 47 48 50 50 50 50 50 51 50 47 44 42 40 38 37 35 33 32 31 31 31 32 32 33 33 32 31 31 31 31 29 28 28 28 26 24 25 25 24 23
33 34 34 35 35 34 34 35 37 38 38 39 40 42 44 46 46 45 45 44 44 45 46 48 49 50 50 50 49 49 50 49 47 44 42 39 38 38 37 35 33 31 32 32 32 31 32 33 32 31 30 30 30 30 28 26 26 26 25 25 25 24 22
33 33 34 34 34 34 36 37 38 38 38 39 41 43 45 46 46 45 45 45 45 46 47 48 49 50 50 49 49 49 49 48 47 45 43 40 37 37 37 36 33 31 31 32 31 31 31 32 32 30 29 29 29 29 27 24 23 24 27 27 25 25 24
32 33 33 33 34 35 36 37 38 39 39 40 41 43 45 46 46 46 45 45 46 47 48 49 49 49 49 49 48 48 48 48 47 46 43 40 37 36 36 36 34 32 31 31 31 29 30 31 31 30 28 27 27 27 25 22 21 22 26 27 25 24 24
32 32 33 33 34 35 36 37 38 39 41 42 42 44 45 46 47 46 46 46 47 47 48 49 49 49 49 49 49 48 48 48 47 46 43 39 36 36 36 36 34 32 31 30 30 28 29 30 30 29 28 27 26 26 23 21 22 22 23 26 26 23 22
32 32 32 33 34 35 36 38 40 41 43 43 44 44 45 46 46 46 46 47 47 48 48 48 49 49 49 49 49 48 48 48 47 45 42 38 36 36 37 36 34 32 31 30 29 28 28 30 30 29 28 27 26 26 23 21 24 24 22 23 25 22 19
31 31 32 34 35 36 38 40 42 43 44 45 45 46 46 46 46 46 46 47 48 48 48 48 49 49 49 49 48 47 47 46 45 43 40 37 36 36 37 36 34 32 31 30 28 27 27 29 29 28 27 26 26 26 25 24 25 25 22 20 22 21 17
31 32 33 35 36 38 40 42 44 45 46 46 46 46 46 46 46 46 47 48 49 49 49 48 49 49 48 48 47 46 45 44 43 41 39 37 35 35 35 34 32 31 30 28 26 25 26 28 28 27 26 26 26 26 27 26 26 26 24 19 18 17 14
32 33 34 36 38 40 42 44 45 46 47 47 47 46 46 46 46 47 48 49 49 50 49 48 48 47 47 46 45 44 43 42 40 39 38 37 35 34 33 32 30 29 28 26 24 23 25 26 26 25 24 25 26 26 27 28 27 26 25 21 17 15 15
32 34 36 38 40 42 44 45 46 46 47 47 47 47 47 47 47 48 49 50 50 50 49 47 46 45 44 43 43 42 41 40 38 38 38 36 34 32 31 30 28 26 25 24 23 22 23 25 25 23 23 24 26 27 28 29 28 26 26 25 20 15 15
33 35 37 40 42 44 45 45 45 46 46 47 48 48 48 49 49 50 51 51 51 50 48 46 44 43 42 41 41 40 39 38 37 37 37 34 32 31 30 28 26 24 23 23 23 22 22 24 24 22 22 23 24 25 26 27 28 27 26 26 23 18 14
35 37 39 42 44 45 46 46 46 46 47 48 48 49 50 50 50 51 51 51 51 50 48 46 43 41 40 40 39 38 37 37 37 37 36 34 31 30 28 26 24 23 22 22 22 22 22 23 23 22 21 22 23 23 24 25 26 27 26 26 24 21 16
38 40 41 43 45 46 46 47 47 48 48 48 49 50 51 51 51 51 51 51 51 49 47 45 43 40 38 38 38 38 38 38 37 36 36 33 30 28 27 26 24 23 22 21 21 21 21 22 23 22 21 21 22 22 22 22 24 25 25 25 24 22 18
39 41 43 45 46 47 48 48 49 49 48 48 49 50 50 51 52 52 52 51 50 48 46 45 43 39 38 38 39 39 39 38 37 36 35 33 30 27 26 25 25 23 21 20 20 20 20 21 22 22 21 21 22 22 22 21 21 22 24 24 24 22 18
41 43 45 46 47 47 48 48 48 48 48 48 48 49 50 51 52 52 51 50 48 47 47 45 43 40 39 39 39 40 39 37 36 36 35 33 29 27 25 25 24 23 20 20 20 20 19 19 20 21 21 21 21 21 21 22 21 20 21 22 23 21 18
43 45 46 46 46 46 46 46 46 46 47 47 48 49 50 51 51 50 49 48 48 48 47 44 42 40 40 40 40 39 37 37 37 37 35 32 29 26 25 25 24 22 21 20 20 20 19 19 19 20 20 20 21 21 21 22 21 20 19 20 20 20 19
45 46 46 45 45 45 45 45 45 46 47 47 48 49 49 49 48 48 48 47 47 47 47 45 42 40 39 39 38 37 36 36 37 36 33 30 28 26 25 24 24 23 21 20 20 20 20 20 19 19 19 19 20 21 21 21 22 21 19 19 19 18 18
46 47 46 45 44 45 45 45 45 46 47 48 48 48 48 47 47 47 47 46 46 46 45 43 40 37 36 36 36 34 34 34 34 32 29 28 27 26 24 24 24 23 22 20 20 20 20 21 20 19 18 17 18 20 20 21 21 21 21 20 19 18 17
47 47 46 45 45 45 45 45 46 47 47 48 48 48 48 47 46 46 45 45 44 43 42 40 37 34 33 33 33 32 31 30 30 29 27 26 27 26 24 24 25 25 23 20 20 20 20 21 21 20 19 17 16 18 20 20 21 21 21 21 21 20 18
47 47 47 46 47 47 47 47 47 48 48 48 48 48 47 46 45 45 44 44 42 41 40 39 37 33 31 31 32 31 30 30 29 29 28 27 27 26 25 24 25 25 24 22 21 21 20 21 21 21 20 19 17 16 18 20 21 21 21 21 21 21 20
48 48 48 48 48 49 49 49 49 49 48 48 48 47 45 44 44 44 44 43 42 41 40 38 36 34 32 31 32 32 31 31 31 30 29 28 26 26 26 25 25 25 24 23 22 21 20 21 21 21 21 20 19 17 18 19 20 20 20 20 20 20 20
50 50 49 49 49 49 50 50 50 49 49 48 47 45 44 43 44 44 44 43 41 40 39 37 35 33 32 31 32 32 31 30 31 30 30 28 26 26 25 26 25 25 24 23 22 20 19 19 21 21 21 21 21 20 19 19 19 19 19 20 20 20 20
Wind_Direction
298 298 300 303 303 302 303 307 313 314 311 312 313 309 309 312 315 317 321 325 324 323 324 324 325 325 325 326 325 323 321 320 318 316 314 312 311 311 311 312 313 313 312 310 307 304 301 298 295 291 289 285 282 278 274 270 267 264 259 255 253 251 248
294 294 297 299 299 298 300 305 310 310 308 311 311 308 309 312 314 316 320 323 323 323 324 325 325 325 325 326 325 324 323 321 319 317 315 313 311 311 311 313 313 313 313 310 308 305 302 300 297 294 291 289 286 281 277 271 265 261 258 254 251 250 248
289 290 293 296 296 296 299 304 308 307 307 310 310 308 310 313 315 316 319 321 322 323 324 325 325 325 325 325 325 325 324 323 321 319 317 315 313 312 313 314 315 314 313 311 309 306 303 301 299 296 293 292 290 286 282 277 269 261 257 254 251 248 247
283 286 290 294 295 296 300 303 305 306 307 310 311 310 312 314 314 314 318 321 322 323 324 325 324 324 325 325 325 325 324 323 321 320 319 318 316 315 315 316 315 315 313 311 308 306 304 302 300 297 295 293 291 288 285 281 276 268 259 254 250 247 246
280 284 289 292 294 297 300 302 304 306 308 310 311 311 312 313 312 314 318 321 322 323 324 324 324 324 324 324 324 324 323 322 321 320 320 319 318 318 317 317 316 315 313 311 309 307 305 303 300 298 295 293 290 287 284 281 279 274 266 258 253 248 246
280 284 288 291 294 298 300 302 304 305 307 309 311 312 312 312 312 315 319 321 322 323 323 324 324 324 324 324 323 323 323 323 322 322 321 320 319 319 318 318 317 315 313 311 309 307 305 303 301 299 296 293 289 287 284 281 278 276 271 263 256 251 248
281 286 290 293 296 298 300 301 304 305 307 309 312 312 311 311 313 316 319 321 322 322 322 323 324 324 323 323 322 323 324 324 324 323 322 320 319 319 318 318 318 316 314 313 311 309 307 304 301 298 295 292 289 287 284 282 278 275 272 266 259 254 250
284 289 294 296 297 298 299 301 303 305 307 311 312 311 310 311 313 317 319 321 322 321 321 323 323 322 321 321 323 324 325 325 325 323 321 319 319 318 318 318 319 317 315 314 313 312 309 306 302 299 297 295 292 289 286 283 278 274 271 267 261 256 253
288 293 296 296 295 296 298 300 303 305 309 312 312 310 309 311 314 317 319 320 321 320 321 321 320 320 320 321 324 325 325 325 324 322 320 318 318 318 317 319 318 317 316 315 315 314 311 308 306 304 302 299 297 294 289 284 279 274 270 268 263 258 255
291 293 294 293 293 295 297 300 303 306 310 312 311 309 309 311 315 317 318 319 320 319 319 318 318 319 320 322 324 324 324 323 323 322 320 319 318 317 317 318 317 316 316 315 315 314 312 310 310 309 306 302 299 297 292 286 280 275 271 269 266 260 256
291 291 291 291 293 294 297 300 303 308 312 311 309 308 309 312 315 316 317 318 318 317 317 316 317 319 320 322 323 322 322 322 322 321 320 319 318 317 317 316 315 315 316 316 316 316 314 313 313 312 310 306 302 298 294 287 280 275 273 273 270 263 257
287 288 290 293 294 296 298 300 304 309 310 308 307 308 309 312 315 316 317 317 316 316 315 316 317 319 320 321 321 320 320 321 321 321 320 320 318 317 317 315 314 316 317 318 319 318 316 315 314 314 313 310 304 298 293 287 279 274 276 280 276 265 258
285 290 294 295 296 296 297 300 304 307 306 306 306 307 308 312 315 316 316 315 315 315 315 316 317 318 319 319 319 319 319 320 321 321 320 319 318 318 318 315 314 316 318 320 322 321 319 317 316 317 315 310 306 302 295 289 283 279 281 284 279 267 258
291 294 294 294 294 294 296 299 303 304 303 304 305 305 308 313 316 315 315 314 314 314 315 315 316 317 317 318 318 318 318 320 321 321 321 319 318 319 320 317 315 316 317 319 322 322 321 319 318 318 315 309 309 312 309 299 288 282 282 283 281 272 261
292 291 290 290 291 293 296 299 301 301 301 303 303 303 308 314 315 314 313 312 313 314 314 314 315 315 316 317 317 317 318 319 321 322 321 319 317 319 321 319 316 315 315 317 320 321 322 321 318 317 316 310 306 308 312 307 293 281 276 275 276 274 266
288 287 288 289 290 293 296 297 298 298 300 301 301 302 307 312 313 312 311 311 312 313 313 313 313 314 315 316 316 316 317 318 321 322 321 318 316 316 318 318 317 315 313 313 315 318 320 321 319 316 316 314 308 303 304 304 297 288 281 278 275 272 267
287 287 288 290 292 295 296 296 296 297 298 299 299 301 305 309 310 310 310 310 311 311 311 311 312 313 314 314 314 314 316 318 319 321 321 318 315 313 314 314 314 313 311 310 311 314 317 319 319 317 316 316 311 305 301 298 296 295 290 287 282 274 268
286 287 289 291 294 297 297 295 295 296 297 298 299 300 303 306 308 308 308 308 309 309 309 309 310 311 312 312 312 313 315 317 318 320 320 318 314 312 311 311 311 310 308 307 307 310 313 316 318 317 316 316 311 306 300 293 293 296 293 289 286 278 269
285 287 291 294 296 296 295 294 295 296 297 297 298 299 301 303 305 306 305 306 306 307 307 307 308 309 310 310 311 312 314 316 318 319 320 317 312 309 308 308 309 308 305 304 305 308 311 313 315 316 316 316 312 305 298 288 290 300 298 292 289 282 273
286 288 291 294 294 293 293 294 296 296 295 295 296 297 299 301 303 304 304 304 304 304 305 306 307 308 309 310 311 312 314 316 317 319 319 316 310 306 305 305 307 307 304 303 303 306 309 310 312 314 315 316 313 305 294 284 286 300 303 296 292 285 274
285 287 290 291 291 291 293 293 293 292 292 292 294 295 297 300 302 302 302 302 302 303 304 305 307 308 310 311 312 313 314 316 317 318 318 316 310 305 303 303 304 305 304 303 303 305 307 308 310 312 313 316 315 306 294 282 281 296 308 302 295 289 276
282 285 287 287 288 290 290 290 290 289 290 291 293 295 297 299 300 300 300 301 302 303 305 306 308 310 311 313 313 313 314 315 316 316 317 315 310 304 302 301 302 302 302 302 303 304 306 306 308 310 312 314 315 309 299 288 283 293 309 310 303 295 281
280 281 282 284 285 287 287 288 289 290 292 294 296 297 298 299 300 300 300 301 302 304 306 308 310 311 312 313 314 313 313 313 315 315 315 313 308 303 301 301 301 300 299 300 302 303 304 305 306 310 311 312 314 311 305 299 294 296 305 314 311 302 286
275 276 279 282 284 286 288 289 291 293 295 297 298 298 298 299 299 300 300 302 304 306 309 310 311 311 312 313 313 312 311 313 314 315 314 312 307 303 302 302 301 300 298 298 300 302 302 303 305 309 310 310 311 312 309 306 305 304 304 307 308 300 277
273 276 280 283 286 288 289 291 293 295 297 298 298 298 298 298 299 301 303 305 307 310 311 312 312 312 312 312 311 310 310 312 314 315 313 310 307 305 304 303 302 300 297 297 299 301 300 301 303 306 308 308 308 311 312 310 311 311 308 304 304 293 264
276 280 283 285 287 289 290 292 294 296 297 298 298 298 298 300 302 304 306 308 310 311 311 311 312 312 312 311 309 308 309 311 314 314 312 309 307 306 305 304 302 299 296 296 299 301 299 299 301 304 306 306 307 310 313 313 314 315 313 308 306 301 279
279 282 284 285 287 288 290 293 295 297 298 299 299 299 300 302 304 306 308 309 309 309 310 311 312 312 311 309 307 306 308 311 314 314 312 309 307 307 306 304 301 297 295 296 298 300 299 298 299 301 303 304 307 310 313 314 315 317 318 314 310 310 311
281 282 284 286 288 291 294 296 298 299 300 300 300 300 302 303 305 307 308 308 307 308 309 311 312 311 309 306 305 305 307 310 313 313 312 309 307 306 305 303 300 296 295 296 297 299 299 298 298 300 301 302 304 309 313 315 315 318 321 321 316 312 319
283 285 288 290 293 296 298 300 300 301 300 300 300 301 302 303 305 306 306 306 307 308 310 311 311 310 306 302 302 304 306 308 310 311 311 308 306 305 304 301 298 296 296 299 299 298 298 297 298 299 300 300 301 305 311 314 316 319 323 326 324 318 317
289 291 292 294 296 298 299 300 300 300 299 299 299 300 301 303 304 305 306 307 308 309 310 310 310 307 302 300 301 303 305 307 308 308 309 307 305 303 301 298 295 293 296 301 301 300 298 297 298 300 300 300 299 301 306 310 314 319 323 327 329 325 319
292 293 293 295 296 297 298 298 298 298 298 298 299 300 302 303 305 306 307 307 308 309 310 310 308 304 301 300 301 302 304 305 305 305 305 304 302 300 298 295 291 291 295 299 300 300 299 298 298 300 301 301 300 299 301 305 309 315 320 325 329 330 324
292 291 292 293 294 295 296 297 297 297 298 299 300 302 303 304 305 306 306 307 307 308 308 307 305 303 301 300 301 302 303 303 302 301 300 299 298 297 295 292 289 287 291 295 296 297 298 299 299 300 301 302 302 300 299 300 303 308 314 318 325 331 329
289 289 290 292 293 294 295 296 297 298 299 301 302 302 304 305 305 305 305 306 306 306 306 306 306 306 302 300 301 302 302 301 300 296 294 294 294 293 292 290 286 284 286 290 292 293 295 296 296 298 301 302 303 302 301 300 300 302 306 310 316 324 329
287 289 291 292 293 293 294 296 298 299 300 301 301 302 303 304 304 304 305 306 307 307 308 308 308 306 302 300 301 302 303 303 299 294 290 290 290 290 289 287 284 282 283 286 290 291 292 292 292 294 298 301 303 303 303 302 300 301 302 305 309 314 321
289 290 292 293 294 295 296 297 299 300 301 301 301 303 304 305 305 306 307 308 308 308 307 305 304 302 301 300 301 302 305 305 301 294 289 288 288 289 288 286 284 283 284 286 288 290 290 289 290 292 296 299 302 303 304 305 305 303 303 303 304 308 314
290 292 294 296 297 298 298 298 299 301 301 301 303 305 305 305 306 306 307 306 306 305 303 301 300 299 299 298 298 299 302 304 301 294 289 288 289 289 289 288 285 284 285 285 285 287 288 288 288 289 292 296 299 302 304 305 307 307 306 305 303 304 307
292 293 296 298 299 299 299 299 300 301 301 302 303 304 304 304 305 304 304 304 303 302 301 300 300 299 297 296 295 294 296 300 298 292 288 287 288 289 290 290 287 285 285 284 283 283 283 284 285 285 287 290 294 297 299 301 303 304 305 306 306 305 305
292 293 295 298 300 300 300 300 301 300 300 301 301 302 303 303 303 302 302 302 302 301 301 301 301 298 295 294 293 292 294 297 295 288 284 284 284 285 288 288 286 286 287 286 285 283 280 279 279 279 281 284 287 290 293 293 294 298 300 303 306 307 307
Height
5901 5900 5899 5898 5897 5896 5895 5894 5893 5892 5891 5890 5889 5887 5886 5884 5882 5880 5878 5876 5874 5871 5869 5867 5865 5862 5859 5857 5854 5851 5848 5846 5843 5840 5837 5834 5831 5828 5825 5822 5820 5817 5815 5813 5810 5808 5807 5806 5804 5803 5802 5801 5801 5801 5801 5801 5800 5800 5800 5801 5802 5802 5803
5899 5898 5897 5897 5896 5894 5893 5892 5891 5891 5889 5888 5886 5885 5883 5881 5879 5877 5874 5872 5870 5867 5865 5863 5860 5858 5855 5853 5850 5848 5845 5842 5839 5837 5833 5830 5827 5824 5820 5817 5815 5812 5810 5807 5805 5803 5801 5800 5799 5798 5797 5795 5795 5795 5794 5794 5794 5794 5794 5794 5795 5796 5797
5897 5896 5895 5894 5893 5892 5891 5890 5889 5888 5886 5885 5884 5882 5880 5878 5875 5873 5871 5869 5867 5864 5861 5859 5856 5854 5851 5849 5846 5843 5841 5838 5835 5832 5829 5826 5823 5819 5816 5813 5810 5807 5804 5802 5800 5798 5796 5794 5793 5792 5792 5790 5789 5789 5788 5788 5788 5787 5787 5787 5788 5789 5790
5895 5894 5893 5891 5890 5889 5888 5887 5886 5885 5883 5882 5881 5879 5876 5874 5872 5870 5868 5865 5863 5860 5857 5855 5852 5850 5847 5844 5841 5839 5836 5833 5830 5827 5824 5821 5818 5815 5811 5808 5805 5802 5799 5796 5794 5793 5791 5789 5788 5786 5786 5785 5784 5783 5782 5782 5781 5780 5780 5780 5781 5782 5784
5892 5891 5890 5888 5887 5886 5884 5883 5882 5881 5880 5879 5877 5875 5872 5870 5868 5866 5864 5861 5859 5856 5854 5851 5849 5846 5843 5840 5837 5834 5832 5829 5825 5822 5819 5816 5813 5809 5806 5803 5800 5798 5795 5792 5790 5788 5786 5784 5782 5780 5779 5778 5777 5776 5776 5775 5774 5774 5773 5773 5774 5775 5777
5889 5888 5887 5885 5884 5883 5881 5879 5878 5877 5876 5875 5873 5871 5868 5866 5864 5862 5860 5857 5855 5852 5849 5847 5844 5842 5839 5836 5833 5830 5827 5824 5820 5817 5814 5810 5807 5804 5801 5799 5796 5793 5790 5788 5785 5783 5781 5779 5776 5774 5772 5771 5770 5769 5768 5768 5767 5767 5767 5766 5767 5768 5769
5886 5885 5883 5882 5880 5879 5877 5875 5874 5873 5872 5871 5869 5866 5864 5862 5860 5858 5855 5853 5850 5847 5845 5842 5840 5837 5835 5832 5829 5826 5823 5819 5816 5812 5809 5805 5802 5799 5796 5794 5792 5789 5786 5784 5781 5779 5776 5774 5771 5769 5766 5764 5763 5762 5761 5761 5760 5760 5759 5759 5760 5760 5762
5883 5881 5880 5878 5877 5875 5873 5872 5870 5869 5868 5867 5865 5862 5860 5858 5856 5854 5851 5849 5846 5843 5840 5838 5835 5833 5830 5828 5825 5822 5818 5815 5812 5808 5805 5802 5798 5795 5792 5790 5787 5785 5782 5780 5777 5774 5771 5768 5766 5763 5761 5759 5757 5756 5755 5754 5754 5753 5752 5752 5753 5754 5755
5879 5878 5877 5875 5873 5871 5870 5868 5867 5865 5865 5863 5861 5858 5856 5854 5852 5850 5847 5845 5842 5839 5836 5834 5832 5829 5826 5823 5820 5817 5814 5811 5808 5805 5801 5798 5795 5792 5788 5786 5783 5781 5778 5776 5773 5770 5766 5763 5761 5758 5756 5754 5752 5750 5749 5748 5747 5747 5746 5746 5746 5747 5749
5876 5875 5873 5872 5870 5868 5866 5865 5863 5862 5861 5859 5857 5854 5852 5850 5848 5846 5843 5841 5838 5835 5833 5831 5829 5826 5822 5819 5815 5813 5810 5807 5804 5801 5798 5794 5791 5788 5785 5782 5779 5777 5775 5772 5769 5765 5762 5759 5756 5754 5751 5749 5747 5745 5744 5743 5742 5741 5741 5740 5741 5741 5743
5873 5871 5870 5869 5867 5865 5863 5861 5860 5859 5857 5855 5853 5850 5848 5846 5844 5842 5839 5836 5834 5832 5830 5828 5825 5821 5818 5815 5812 5809 5806 5804 5801 5797 5794 5790 5787 5784 5781 5778 5775 5773 5771 5768 5765 5761 5758 5755 5752 5750 5747 5745 5743 5741 5739 5738 5737 5737 5736 5735 5735 5736 5736
5870 5868 5867 5865 5863 5861 5859 5858 5856 5855 5853 5851 5849 5847 5845 5843 5840 5838 5835 5833 5830 5828 5826 5824 5821 5817 5814 5811 5808 5805 5803 5800 5797 5793 5790 5787 5784 5781 5777 5774 5772 5769 5767 5764 5761 5758 5755 5751 5748 5745 5743 5741 5739 5737 5735 5734 5733 5732 5732 5731 5730 5730 5731
5866 5864 5863 5861 5859 5857 5855 5854 5853 5851 5849 5847 5845 5843 5841 5839 5836 5833 5831 5829 5826 5824 5822 5819 5816 5813 5810 5807 5804 5801 5799 5796 5793 5789 5785 5782 5780 5777 5773 5770 5768 5766 5763 5760 5757 5754 5751 5748 5745 5742 5740 5738 5735 5733 5732 5731 5729 5728 5727 5726 5725 5725 5725
5861 5860 5858 5857 5855 5853 5852 5851 5850 5848 5845 5843 5841 5839 5837 5835 5832 5830 5827 5824 5822 5820 5817 5814 5812 5809 5806 5803 5800 5797 5794 5791 5788 5785 5781 5778 5776 5773 5770 5767 5765 5762 5760 5757 5754 5751 5748 5745 5742 5739 5737 5735 5732 5730 5729 5728 5726 5724 5724 5723 5721 5721 5721
5858 5856 5854 5853 5852 5850 5849 5847 5846 5844 5842 5839 5837 5835 5833 5831 5828 5826 5823 5820 5818 5815 5813 5810 5807 5804 5801 5798 5796 5793 5790 5787 5784 5781 5777 5774 5772 5769 5766 5763 5761 5759 5757 5754 5751 5748 5746 5743 5740 5737 5734 5732 5730 5728 5727 5725 5723 5721 5720 5719 5718 5717 5717
5854 5852 5851 5849 5848 5846 5845 5844 5842 5840 5838 5836 5833 5830 5829 5827 5824 5822 5819 5816 5814 5811 5809 5806 5803 5800 5797 5794 5792 5789 5786 5783 5780 5777 5774 5771 5768 5766 5763 5761 5758 5755 5753 5751 5748 5745 5743 5740 5737 5734 5731 5729 5727 5725 5724 5723 5720 5718 5717 5716 5715 5714 5713
5850 5848 5846 5845 5844 5843 5842 5840 5838 5836 5834 5832 5829 5826 5825 5823 5821 5818 5815 5813 5810 5808 5805 5802 5800 5797 5794 5791 5788 5786 5783 5779 5776 5773 5770 5767 5764 5762 5760 5757 5755 5752 5750 5747 5745 5742 5739 5737 5734 5731 5728 5726 5724 5722 5721 5720 5718 5716 5714 5713 5712 5711 5710
5845 5844 5842 5841 5839 5838 5837 5835 5834 5832 5830 5828 5825 5822 5820 5819 5817 5814 5811 5809 5807 5804 5802 5799 5796 5793 5791 5788 5785 5783 5779 5776 5773 5770 5767 5764 5761 5758 5756 5754 5752 5749 5746 5743 5741 5739 5736 5734 5731 5728 5726 5724 5721 5719 5718 5717 5715 5713 5711 5709 5708 5707 5707
5841 5839 5838 5836 5835 5834 5833 5831 5830 5828 5826 5824 5821 5819 5817 5815 5813 5810 5808 5805 5803 5801 5798 5795 5793 5790 5787 5785 5782 5779 5776 5772 5769 5766 5763 5760 5757 5755 5752 5750 5748 5746 5743 5740 5738 5736 5733 5731 5728 5726 5723 5721 5719 5717 5715 5713 5712 5710 5708 5707 5705 5704 5703
5836 5835 5834 5832 5831 5830 5828 5827 5825 5823 5821 5819 5817 5815 5813 5811 5809 5806 5804 5801 5799 5796 5794 5791 5789 5786 5783 5781 5778 5775 5771 5768 5765 5762 5759 5756 5754 5752 5749 5747 5745 5743 5740 5737 5735 5733 5730 5728 5725 5723 5721 5719 5716 5714 5712 5710 5709 5708 5706 5704 5703 5702 5700
5832 5831 5830 5829 5827 5826 5824 5822 5820 5818 5816 5815 5814 5811 5809 5807 5804 5802 5799 5797 5794 5791 5789 5786 5784 5781 5778 5775 5773 5770 5767 5764 5761 5758 5755 5752 5750 5748 5746 5743 5741 5739 5737 5735 5732 5730 5728 5725 5722 5720 5718 5716 5714 5712 5710 5708 5706 5705 5703 5701 5700 5699 5698
5828 5827 5826 5825 5823 5821 5819 5817 5815 5813 5811 5810 5809 5807 5805 5802 5800 5797 5794 5792 5789 5786 5784 5781 5778 5775 5773 5770 5768 5765 5763 5760 5757 5754 5751 5749 5746 5744 5742 5740 5738 5736 5734 5732 5729 5727 5725 5722 5720 5718 5716 5713 5712 5710 5707 5705 5703 5702 5701 5699 5697 5696 5695
5825 5823 5822 5820 5818 5816 5814 5812 5810 5808 5806 5805 5803 5801 5799 5797 5795 5792 5789 5787 5784 5781 5779 5776 5773 5770 5768 5766 5763 5761 5758 5756 5753 5750 5748 5745 5743 5740 5738 5736 5734 5732 5731 5729 5726 5724 5722 5719 5717 5715 5713 5711 5709 5707 5705 5703 5701 5699 5698 5697 5695 5693 5693
5820 5819 5817 5815 5813 5811 5809 5807 5805 5803 5801 5799 5797 5796 5794 5792 5790 5787 5785 5782 5779 5777 5774 5771 5768 5766 5764 5761 5759 5756 5753 5751 5749 5746 5744 5741 5739 5737 5734 5732 5731 5729 5727 5726 5724 5722 5719 5717 5714 5713 5711 5709 5707 5705 5703 5701 5699 5697 5696 5695 5693 5691 5691
5815 5813 5812 5810 5809 5807 5804 5802 5800 5798 5796 5794 5792 5790 5788 5787 5785 5782 5780 5777 5774 5771 5769 5767 5764 5762 5759 5757 5755 5752 5749 5746 5744 5742 5739 5737 5735 5733 5731 5729 5727 5725 5724 5722 5721 5719 5717 5714 5712 5710 5708 5706 5704 5703 5701 5699 5697 5696 5694 5693 5691 5690 5688
5810 5808 5807 5806 5804 5802 5800 5798 5796 5794 5791 5789 5787 5785 5783 5781 5779 5777 5774 5771 5769 5766 5764 5762 5760 5757 5755 5752 5750 5747 5745 5742 5740 5738 5735 5733 5731 5729 5727 5725 5724 5722 5721 5719 5717 5716 5714 5712 5710 5708 5706 5704 5702 5701 5699 5697 5695 5694 5692 5691 5689 5688 5686
5805 5804 5803 5801 5799 5797 5795 5793 5792 5789 5787 5784 5782 5779 5777 5775 5773 5771 5769 5766 5764 5762 5760 5758 5755 5752 5750 5747 5745 5743 5740 5738 5736 5733 5731 5729 5727 5725 5723 5722 5721 5720 5718 5716 5714 5713 5711 5709 5707 5706 5704 5702 5700 5699 5697 5695 5693 5692 5690 5689 5687 5686 5684
5801 5800 5798 5796 5794 5792 5790 5789 5787 5784 5782 5779 5777 5774 5772 5770 5768 5766 5764 5761 5759 5757 5755 5752 5750 5748 5745 5742 5740 5738 5736 5734 5732 5729 5727 5725 5723 5721 5720 5719 5718 5717 5716 5714 5712 5710 5709 5707 5705 5703 5702 5700 5698 5697 5696 5694 5692 5690 5688 5687 5685 5684 5683
5797 5795 5793 5791 5789 5787 5785 5783 5781 5779 5777 5774 5772 5769 5767 5765 5763 5761 5759 5756 5754 5752 5750 5747 5745 5743 5740 5738 5736 5734 5732 5730 5728 5725 5723 5722 5720 5718 5717 5716 5715 5714 5713 5711 5709 5708 5706 5704 5702 5701 5700 5698 5696 5695 5694 5693 5691 5689 5687 5685 5684 5682 5681
5792 5789 5787 5785 5783 5782 5780 5778 5776 5774 5771 5769 5767 5764 5762 5760 5758 5756 5753 5751 5749 5747 5745 5742 5740 5738 5736 5733 5731 5730 5728 5726 5723 5721 5719 5718 5716 5715 5713 5713 5712 5711 5710 5708 5707 5705 5703 5701 5699 5698 5697 5696 5694 5693 5692 5692 5690 5688 5686 5684 5682 5680 5679
5786 5784 5782 5780 5779 5777 5775 5773 5771 5769 5766 5764 5762 5760 5757 5755 5753 5751 5748 5746 5744 5742 5740 5738 5736 5733 5731 5729 5727 5725 5723 5721 5719 5717 5715 5714 5713 5711 5710 5710 5709 5708 5707 5705 5704 5703 5701 5699 5697 5695 5694 5693 5692 5691 5690 5689 5688 5687 5685 5683 5681 5679 5678
5780 5779 5777 5776 5774 5772 5770 5768 5765 5763 5761 5759 5757 5755 5752 5750 5748 5746 5743 5741 5739 5737 5735 5733 5731 5729 5727 5725 5723 5721 5719 5717 5715 5712 5711 5710 5709 5708 5707 5706 5706 5705 5704 5703 5702 5700 5699 5697 5695 5693 5692 5691 5689 5688 5688 5687 5686 5685 5684 5682 5680 5679 5677
5775 5774 5772 5771 5769 5766 5764 5762 5760 5758 5756 5753 5751 5750 5748 5745 5743 5741 5739 5737 5735 5733 5731 5729 5727 5725 5723 5720 5718 5717 5715 5713 5710 5708 5707 5706 5705 5704 5704 5703 5702 5702 5701 5700 5699 5698 5697 5695 5693 5691 5689 5688 5687 5686 5685 5684 5683 5683 5682 5681 5680 5678 5676
5770 5769 5767 5765 5763 5761 5759 5757 5755 5753 5751 5748 5746 5744 5742 5740 5738 5736 5734 5732 5730 5728 5726 5724 5722 5720 5718 5716 5714 5713 5711 5708 5706 5703 5703 5702 5701 5700 5700 5700 5699 5698 5698 5698 5697 5695 5694 5692 5690 5689 5687 5686 5685 5684 5683 5682 5681 5681 5680 5679 5678 5677 5676
5765 5763 5761 5759 5757 5755 5753 5751 5749 5748 5746 5743 5741 5739 5737 5735 5733 5731 5729 5728 5726 5723 5721 5718 5717 5715 5713 5712 5710 5709 5707 5705 5702 5700 5699 5699 5698 5697 5697 5696 5696 5695 5695 5695 5694 5693 5691 5690 5688 5687 5685 5685 5684 5683 5681 5680 5680 5679 5678 5677 5676 5675 5675
5758 5757 5755 5753 5751 5749 5747 5746 5744 5742 5740 5738 5735 5733 5731 5729 5727 5726 5724 5722 5720 5718 5715 5713 5712 5711 5710 5708 5706 5705 5703 5702 5699 5697 5696 5695 5695 5694 5693 5693 5693 5692 5692 5692 5691 5690 5689 5688 5686 5685 5684 5683 5682 5682 5680 5679 5678 5678 5677 5676 5675 5674 5673
5752 5751 5749 5748 5746 5744 5742 5740 5738 5736 5734 5732 5730 5728 5726 5724 5722 5720 5718 5716 5714 5712 5710 5709 5707 5707 5706 5704 5702 5701 5699 5698 5696 5694 5693 5693 5692 5691 5690 5689 5689 5689 5688 5688 5688 5687 5687 5686 5685 5683 5682 5681 5680 5679 5679 5678 5677 5676 5675 5674 5673 5672 5671
5746 5745 5744 5742 5740 5738 5736 5734 5732 5730 5728 5726 5724 5723 5721 5719 5717 5715 5713 5711 5709 5708 5706 5704 5703 5702 5701 5700 5698 5697 5696 5695 5693 5692 5691 5690 5689 5688 5687 5686 5686 5685 5685 5685 5684 5684 5683 5683 5682 5681 5680 5679 5677 5677 5676 5676 5675 5674 5673 5672 5671 5670 5669